This is the latest recevied weather packets stored in our database for station/object SALT. If no packets are shown the sender has not sent any weather packets the latest 10 day(s).
| Time | Temp. | Humidity | Pressure | Rain* | Wind** | Luminosity | Snow |
|---|---|---|---|---|---|---|---|
| 1777963784 | 10° C | 58% | 1013.1 hPa | 0 mm | - | - | - |
| 1777963181 | 10° C | 58% | 1013.1 hPa | 0 mm | - | - | - |
| 1777962577 | 10° C | 60% | 1013.1 hPa | 0 mm | - | - | - |
| 1777961975 | 10° C | 60% | 1013.1 hPa | 0 mm | - | - | - |
| 1777961371 | 10° C | 61% | 1013.1 hPa | 0 mm | - | - | - |
| 1777960769 | 10° C | 61% | 1013.1 hPa | 0 mm | - | - | - |
| 1777960167 | 10° C | 60% | 1013 hPa | 0 mm | - | - | - |
| 1777959563 | 10° C | 62% | 1013 hPa | 0 mm | - | - | - |
| 1777958959 | 10° C | 62% | 1013.1 hPa | 0 mm | - | - | - |
| 1777958356 | 9.44° C | 63% | 1013 hPa | 0 mm | - | - | - |
| 1777957754 | 10° C | 62% | 1013.2 hPa | 0 mm | - | - | - |
| 1777957152 | 10° C | 61% | 1013.3 hPa | 0 mm | - | - | - |
| 1777956548 | 10° C | 61% | 1013.3 hPa | 0 mm | - | - | - |
| 1777955945 | 10° C | 60% | 1013.3 hPa | 0 mm | - | - | - |
| 1777955341 | 10.56° C | 59% | 1013.2 hPa | 0 mm | - | - | - |
| 1777954738 | 10.56° C | 58% | 1013 hPa | 0 mm | - | - | - |
| 1777954135 | 10.56° C | 58% | 1013 hPa | 0 mm | - | - | - |
| 1777953533 | 11.11° C | 57% | 1013 hPa | 0 mm | - | - | - |
| 1777952931 | 11.11° C | 56% | 1012.8 hPa | 0 mm | - | - | - |
| 1777952327 | 11.67° C | 54% | 1012.7 hPa | 0 mm | - | - | - |
| 1777951723 | 11.67° C | 53% | 1012.4 hPa | 0 mm | - | - | - |
| 1777951120 | 12.22° C | 52% | 1012.3 hPa | 0 mm | - | - | - |
| 1777950517 | 11.67° C | 52% | 1012.1 hPa | 0 mm | - | - | - |
| 1777949915 | 11.67° C | 53% | 1012.1 hPa | 0 mm | - | - | - |
| 1777949312 | 11.67° C | 52% | 1012 hPa | 0 mm | - | - | - |
* Rain latest 24 hours (hover to see other rain measurements)
** Current wind speed in m/s (hover to see current wind gust speed)